United States

Cheney, KS Weather Archive

Below you will find the last 24 hours of weather readings for Cheney KS

Cheney KS Today's Weather Data

Observed at: Cheney, KS

Hour Observerd Temp Pressure Visibility Humidity Dew Point Wind
19:00 A Few Clouds 93°F (33.9°C) 101.59 kPa 10 miles 32% 59°F (15°C) 11 mph S 173.75°18 mph
18:00 A Few Clouds 95°F (35°C) 101.59 kPa 10 miles 28% 57°F (13.9°C) 9 mph S 173.75°23 mph
17:00 A Few Clouds 95°F (35°C) 101.59 kPa 10 miles 28% 57°F (13.9°C) 9 mph S 173.75°23 mph
16:00 A Few Clouds 91°F (32.8°C) 101.59 kPa 10 miles 34% 59°F (15°C) 6 mph S 173.75°16 mph
15:00 A Few Clouds 91°F (32.8°C) 101.59 kPa 10 miles 34% 59°F (15°C) 6 mph S 173.75°16 mph
14:00 A Few Clouds 91°F (32.8°C) 101.59 kPa 10 miles 34% 59°F (15°C) 6 mph S 173.75°16 mph
13:00 A Few Clouds 86°F (30°C) 101.59 kPa 10 miles 46% 62.6°F (17°C) 5 mph S 173.75°17 mph
12:00 Fair 63°F (17.2°C) 101.59 kPa 10 miles 76% 55°F (12.8°C) 6 mph S 173.75°
11:00 Fair 63°F (17.2°C) 101.59 kPa 10 miles 76% 55°F (12.8°C) 6 mph S 173.75°
10:00 Fair 63°F (17.2°C) 101.59 kPa 10 miles 76% 55°F (12.8°C) 6 mph S 173.75°
09:00 Fair 63°F (17.2°C) 101.59 kPa 10 miles 76% 55°F (12.8°C) 6 mph S 173.75°
08:00 Fair 63°F (17.2°C) 101.59 kPa 10 miles 76% 55°F (12.8°C) 6 mph S 173.75°
07:00 Fair 63°F (17.2°C) 101.59 kPa 10 miles 76% 55°F (12.8°C) 6 mph S 173.75°
06:00 Fair 63°F (17.2°C) 101.59 kPa 10 miles 76% 55°F (12.8°C) 6 mph S 173.75°
05:00 Fair 67°F (19.4°C) 101.59 kPa 10 miles 66% 55°F (12.8°C) -
04:00 A Few Clouds 68°F (20°C) 101.59 kPa 10 miles 61% 54°F (12.2°C) 4 mph E 83.75°
03:00 A Few Clouds 73°F (22.8°C) 101.59 kPa 10 miles 55% 55.9°F (13.3°C) 9 mph E 83.75°
02:00 A Few Clouds 73°F (22.8°C) 101.59 kPa 10 miles 55% 55.9°F (13.3°C) 9 mph E 83.75°
01:00 A Few Clouds 81°F (27.2°C) 101.59 kPa 10 miles 33% 48.9°F (9.4°C) 11 mph E 83.75°
00:00 A Few Clouds 81°F (27.2°C) 101.59 kPa 10 miles 33% 48.9°F (9.4°C) 11 mph E 83.75°
23:00 A Few Clouds 81°F (27.2°C) 101.59 kPa 10 miles 33% 48.9°F (9.4°C) 11 mph E 83.75°
22:00 A Few Clouds 83°F (28.3°C) 101.59 kPa 10 miles 33% 51.1°F (10.6°C) 8 mph E 83.75°
21:00 A Few Clouds 85°F (29.4°C) 101.59 kPa 10 miles 31% 51.1°F (10.6°C) 9 mph E 83.75°
20:00 A Few Clouds 89°F (31.7°C) 101.59 kPa 10 miles 24% 48°F (8.9°C) 9 mph E 83.75°


Home | Earthquakes | About Us | Contact Us | Privacy

Copyright Friendly Forecast 2012 - 2022